Date String (YYYY-MM-DD hh:mm:ss) UTC,Instrument flags,absolute air pressure of the measurement (hPa),sample flow rate (lpm),inlet stack bypass flow (lpm),air temperature of the measurement (°C),ambient temperature measured by the external sensor (°C),aerosol sample conditioner tube jacket temperature (°C),OPC LED temperature (°C),internal box temperature (°C),relative humidity of the measurement (%),span deviation,mass concentration of particles derived from Lorenz-Mie calculation of OPC scattering (μg/m³),mass concentration of particles derived from Lorenz-Mie calculation of OPC scattering (μg/m³),mass concentration of particles derived from Lorenz-Mie calculation of OPC scattering (μg/m³)
DateTimeUTC,F1_M11,P_M11,Q1_M11,Q2_M11,T1_M11,T2_M11,T3_M11,T4_M11,T5_M11,U1_M11,ZSPAN_M11,X0_M11,X2_M11,X1_M11
2024-01-05 09:00:00,SystemResetWarning,0824.3,5.00,000.00,018.7,017.9,000.0,027.1,020.0,18.6,0001.7,0010.45,0005.99,0005.63
2024-01-05 09:01:00,SystemResetWarning,0824.3,4.99,000.00,018.7,017.9,000.0,027.1,020.0,18.6,0001.8,0010.44,0006.02,0005.65
2024-01-05 09:02:00,SystemResetWarning,0824.3,5.01,000.00,018.7,017.9,000.0,027.1,020.0,18.6,0001.4,0009.36,0006.04,0005.67
2024-01-05 09:03:00,SystemResetWarning,0824.3,5.01,000.00,018.7,017.8,000.0,027.1,020.0,18.6,0001.5,0009.24,0006.04,0005.68
2024-01-05 09:04:00,SystemResetWarning,0824.4,5.00,000.00,018.7,017.8,000.0,027.1,020.0,18.6,0001.4,0009.30,0006.06,0005.68
2024-01-05 09:05:00,SystemResetWarning,0824.3,5.00,000.00,018.7,017.8,000.0,027.1,020.0,18.6,0002.0,0009.47,0006.08,0005.69
2024-01-05 09:06:00,SystemResetWarning,0824.4,5.00,000.00,018.7,017.8,000.0,027.1,020.0,18.5,0001.8,0009.45,0006.08,0005.69
2024-01-05 09:07:00,SystemResetWarning,0824.4,5.00,000.00,018.7,017.7,000.0,027.1,020.0,18.5,0001.4,0009.45,0006.08,0005.71
2024-01-05 09:08:00,SystemResetWarning,0824.4,5.00,000.00,018.7,017.7,000.0,027.1,020.0,18.5,0001.5,0009.28,0006.05,0005.71
2024-01-05 09:09:00,SystemResetWarning,0824.4,5.00,000.00,018.7,017.7,000.0,027.1,020.0,18.5,0001.9,0009.27,0006.06,0005.71
2024-01-05 09:10:00,SystemResetWarning,0824.4,4.99,000.00,018.7,017.7,000.0,027.1,020.0,18.5,0001.9,0009.34,0006.09,0005.72
2024-01-05 09:11:00,SystemResetWarning,0824.4,5.00,000.00,018.7,017.7,000.0,027.1,020.0,18.5,0001.5,0009.28,0006.07,0005.71
2024-01-05 09:12:00,SystemResetWarning,0824.4,5.00,000.00,018.7,017.7,000.0,027.1,020.0,18.5,0001.5,0009.17,0006.04,0005.70
2024-01-05 09:13:00,SystemResetWarning,0824.3,5.01,000.00,018.7,017.6,000.0,027.1,020.0,18.5,0001.3,0009.26,0006.03,0005.70
2024-01-05 09:14:00,SystemResetWarning,0824.4,5.01,000.00,018.7,017.6,000.0,027.1,020.0,18.5,0001.6,0009.23,0006.03,0005.70
2024-01-05 09:15:00,SystemResetWarning,0824.4,5.00,000.00,018.7,017.6,000.0,027.1,020.0,18.5,0001.8,0009.22,0006.03,0005.70
2024-01-05 09:16:00,SystemResetWarning,0824.4,5.00,000.00,018.7,017.6,000.0,027.1,020.0,18.4,0002.1,0009.09,0006.03,0005.70
2024-01-05 09:17:00,SystemResetWarning,0824.4,5.00,000.00,018.7,017.6,000.0,027.1,020.0,18.4,0002.2,0009.16,0006.01,0005.68
2024-01-05 09:18:00,SystemResetWarning,0824.4,5.00,000.00,018.7,017.6,000.0,027.1,020.0,18.4,0002.3,0009.57,0006.00,0005.68
2024-01-05 09:19:00,SystemResetWarning,0824.5,4.99,000.00,018.7,017.6,000.0,027.1,020.0,18.4,0002.2,0009.58,0006.01,0005.67
2024-01-05 09:20:00,SystemResetWarning,0824.5,4.99,000.00,018.7,017.6,000.0,027.1,020.0,18.4,0002.1,0009.62,0006.03,0005.67
2024-01-05 09:21:00,SystemResetWarning,0824.6,5.00,000.00,018.7,017.5,000.0,027.1,020.0,18.3,0002.1,0009.53,0006.01,0005.66
2024-01-05 09:22:00,SystemResetWarning,0824.5,5.00,000.00,018.7,017.5,000.0,027.1,020.0,18.3,0002.3,0009.52,0006.00,0005.66
2024-01-05 09:23:00,SystemResetWarning,0824.5,5.01,000.00,018.7,017.5,000.0,027.1,020.0,18.3,0001.9,0009.54,0006.01,0005.66
2024-01-05 09:24:00,SystemResetWarning,0824.5,5.01,000.00,018.7,017.5,000.0,027.1,020.0,18.3,0002.1,0009.36,0006.01,0005.67
2024-01-05 09:25:00,SystemResetWarning,0824.5,5.00,000.00,018.7,017.5,000.0,027.1,020.0,18.3,0001.8,0009.33,0006.00,0005.67
2024-01-05 09:26:00,SystemResetWarning,0824.4,5.00,000.00,018.7,017.5,000.0,027.1,020.0,18.2,0001.8,0009.44,0006.00,0005.67
2024-01-05 09:27:00,SystemResetWarning,0824.4,5.00,000.00,018.7,017.5,000.0,027.1,020.0,18.1,0001.4,0009.47,0006.02,0005.67
2024-01-05 09:28:00,SystemResetWarning,0824.4,5.00,000.00,018.7,017.5,000.0,027.1,020.0,18.1,0001.2,0009.61,0006.08,0005.70
2024-01-05 09:29:00,SystemResetWarning,0824.4,5.00,000.00,018.7,017.5,000.0,027.1,020.0,18.1,0001.5,0009.28,0006.08,0005.71
2024-01-05 09:30:00,SystemResetWarning,0824.4,5.00,000.00,018.7,017.5,000.0,027.1,020.0,18.0,0001.3,0009.26,0006.08,0005.73
2024-01-05 09:31:00,SystemResetWarning,0824.4,5.00,000.00,018.7,017.5,000.0,027.1,020.0,18.0,0001.1,0009.19,0006.05,0005.72
2024-01-05 09:32:00,SystemResetWarning,0824.4,5.00,000.00,018.7,017.5,000.0,027.1,020.0,18.0,0000.9,0009.09,0006.03,0005.72
2024-01-05 09:33:00,SystemResetWarning,0824.4,4.99,000.00,018.7,017.5,000.0,027.1,020.0,18.0,0001.0,0009.09,0006.02,0005.72
2024-01-05 09:34:00,SystemResetWarning,0824.4,5.00,000.00,018.7,017.5,000.0,027.1,020.0,18.1,0001.3,0009.09,0006.01,0005.71
2024-01-05 09:35:00,SystemResetWarning,0824.4,5.00,000.00,018.7,017.5,000.0,027.1,020.0,18.1,0001.7,0009.06,0005.99,0005.70
2024-01-05 09:36:00,SystemResetWarning,0824.4,5.00,000.00,018.7,017.5,000.0,027.1,020.0,18.1,0001.8,0009.13,0006.01,0005.70
2024-01-05 09:37:00,SystemResetWarning,0824.4,5.00,000.00,018.7,017.5,000.0,027.1,020.0,18.1,0002.0,0009.05,0006.00,0005.69
2024-01-05 09:38:00,SystemResetWarning,0824.4,5.00,000.00,018.7,017.5,000.0,027.1,020.0,18.1,0002.2,0008.99,0005.97,0005.68
2024-01-05 09:39:00,SystemResetWarning,0824.4,5.00,000.00,018.7,017.5,000.0,027.1,020.0,18.0,0002.4,0009.21,0005.92,0005.66
2024-01-05 09:40:00,SystemResetWarning,0824.4,5.00,000.00,018.7,017.5,000.0,027.1,020.0,17.9,0002.5,0009.37,0005.89,0005.63
2024-01-05 09:41:00,SystemResetWarning,0824.4,5.00,000.00,018.6,017.5,000.0,027.1,020.0,18.0,0002.1,0009.46,0005.88,0005.62
2024-01-05 09:42:00,SystemResetWarning,0824.4,5.00,000.00,018.7,017.5,000.0,027.1,020.0,17.9,0002.2,0009.38,0005.84,0005.60
2024-01-05 09:43:00,SystemResetWarning,0824.4,5.00,000.00,018.6,017.4,000.0,027.1,020.0,17.9,0002.5,0009.39,0005.84,0005.61
2024-01-05 09:44:00,SystemResetWarning,0824.4,5.00,000.00,018.6,017.5,000.0,027.1,020.0,17.8,0002.7,0009.36,0005.82,0005.59
2024-01-05 09:45:00,SystemResetWarning,0824.4,5.00,000.00,018.6,017.5,000.0,027.1,020.0,17.8,0002.4,0009.94,0005.81,0005.58
2024-01-05 09:46:00,SystemResetWarning,0824.4,5.00,000.00,018.6,017.5,000.0,027.1,020.0,17.7,0002.0,0010.14,0005.80,0005.56
2024-01-05 09:47:00,SystemResetWarning,0824.4,4.99,000.00,018.6,017.5,000.0,027.1,020.0,17.7,0001.6,0010.45,0005.77,0005.53
2024-01-05 09:48:00,SystemResetWarning,0824.4,5.00,000.00,018.6,017.4,000.0,027.1,020.0,17.7,0001.2,0010.50,0005.73,0005.49
2024-01-05 09:49:00,SystemResetWarning,0824.5,5.00,000.00,018.6,017.4,000.0,027.1,020.0,17.6,0001.1,0010.55,0005.70,0005.45
2024-01-05 09:50:00,SystemResetWarning,0824.4,5.00,000.00,018.6,017.4,000.0,027.1,020.0,17.5,0001.2,0010.69,0005.68,0005.42
2024-01-05 09:51:00,SystemResetWarning,0824.4,5.00,000.00,018.6,017.4,000.0,027.1,020.0,17.5,0001.4,0010.21,0005.65,0005.38
2024-01-05 09:52:00,SystemResetWarning,0824.4,5.00,000.00,018.6,017.4,000.0,027.1,020.0,17.5,0001.6,0010.08,0005.62,0005.33
2024-01-05 09:53:00,SystemResetWarning,0824.4,5.00,000.00,018.6,017.4,000.0,027.1,020.0,17.6,0001.7,0010.09,0005.59,0005.28
2024-01-05 09:54:00,SystemResetWarning,0824.4,5.00,000.00,018.6,017.4,000.0,027.1,020.0,17.6,0002.0,0010.08,0005.56,0005.24
2024-01-05 09:55:00,SystemResetWarning,0824.4,5.00,000.00,018.6,017.4,000.0,027.1,020.0,17.6,0002.1,0010.02,0005.52,0005.20
2024-01-05 09:56:00,SystemResetWarning,0824.4,5.00,000.00,018.6,017.4,000.0,027.1,020.0,17.6,0002.3,0009.47,0005.48,0005.18
2024-01-05 09:57:00,SystemResetWarning,0824.4,5.00,000.00,018.6,017.5,000.0,027.1,020.1,17.5,0002.2,0009.15,0005.48,0005.17
2024-01-05 09:58:00,SystemResetWarning,0824.4,5.00,000.00,018.7,018.0,000.0,027.1,020.5,17.4,0002.1,0009.01,0005.46,0005.16
2024-01-05 09:59:00,SystemResetWarning,0824.4,4.99,000.00,018.9,018.7,000.0,027.1,020.8,17.3,0002.4,0009.19,0005.46,0005.16
